Regional Weather Roundup
Issued by NWS

Home | Current Version | Previous Version | Graphics & Text | Print | Product List | Glossary On
Versions: 1 2 3 4 5 6 7 8 9 10 11 12 13 14 15 16 17 18 19 20 21 22 23 24 25 26 27 28 29 30 31 32 33 34 35 36 37 38 39 40 41 42 43 44 45 46 47 48 49 50
000
ASUS43 KIND 010109
RWRIN

WEATHER ROUNDUP FOR INDIANA
NATIONAL WEATHER SERVICE INDIANAPOLIS IN
800 PM EST SAT FEB 28 2015

NOTE: "FAIR" INDICATES FEW OR NO CLOUDS BELOW 12,000 FEET WITH NO
SIGNIFICANT WEATHER AND/OR OBSTRUCTIONS TO VISIBILITY.

* - STATION DOES NOT REPORT WEATHER SUCH AS PRECIPITATION OR FOG.

+ - STATION NOT QUALITY CONTROLLED BY THE NATIONAL WEATHER SERVICE.
    USE DATA WITH CAUTION...ESPECIALLY DEWPOINT AND RELATIVE
    HUMIDITY OBSERVATIONS.

INZ001>003-010>013-019-020-010200-
NORTHWEST INDIANA

CITY           SKY/WX    TMP DP  RH WIND       PRES   REMARKS
GARY /AIRPORT/ LGT SNOW  21   5  49 SE6       30.56R WCI  14
KNOX *+          N/A     21  -6  30 SE5       30.54S WCI  15
LA PORTE +     CLOUDY    21  10  63 SE5       30.55R WCI  15
MICHIGAN CITY+ CLOUDY    21   1  42 CALM      30.55S
MONTICELLO +   LGT SNOW  21  11  64 E7        30.54R WCI  13
RENSSELAER +   LGT SNOW  21  19  93 E10       30.54S WCI  10
VALPARAISO     CLOUDY    20   6  55 SE3       30.55R

$$

LMZ046-743>745-010200-
SOUTHERN LAKE MICHIGAN

STATION/POSITION TIME  TEMP WIND        PRES
                       AIR  DIR/SP/G
                 (UTC) (F)  (DEG/KT/KT) (MB)
MICHIGAN CITY    0000   20   70/  8/  9   N/A

$$

INZ004-005-014>016-021>024-010200-
NORTH CENTRAL INDIANA

CITY           SKY/WX    TMP DP  RH WIND       PRES   REMARKS
GOSHEN         CLOUDY    18   6  59 SE7       30.55S WCI   9
LOGANSPORT +   FLURRIES  21  10  63 SE12G17   30.55R WCI   9
PERU/GRISSOM   FLURRIES  21  10  63 E10       30.53R WCI  10
ROCHESTER +    CLOUDY    23  10  58 SE8       30.55S WCI  14
SOUTH BEND     CLOUDY    20   6  55 SE9       30.55S WCI   9
WARSAW +       CLOUDY    19   5  53 SE7       30.55R WCI  10

$$

INZ006>009-017-018-025>027-010200-
NORTHEAST INDIANA

CITY           SKY/WX    TMP DP  RH WIND       PRES   REMARKS
ANGOLA *+      CLEAR     16   3  57 SE7       30.54F WCI   6
AUBURN +       CLOUDY    19   3  49 E6        30.57S WCI  11
FORT WAYNE     CLOUDY    18   6  59 E10       30.56F WCI   6
HUNTINGTON +   CLOUDY    19   3  49 E6        30.55S WCI  11

$$

INZ028-029-035-036-043>045-051>053-010200-
WEST CENTRAL INDIANA

CITY           SKY/WX    TMP DP  RH WIND       PRES   REMARKS
CRAWFORDSVL +  LGT SNOW  19  14  80 E7        30.51F WCI  10
GREENCASTLE +  LGT SNOW  21  14  73 E6        30.51S WCI  14
LAFAYETTE      LGT SNOW  20  16  84 E10       30.54S FOG     WCI   9
TERRE HAUTE    LGT SNOW  24  21  88 SE5       30.52S VSB 1   WCI  18

$$

INZ030>032-037>040-046>048-054>057-064-065-010200-
CENTRAL INDIANA

CITY           SKY/WX    TMP DP  RH WIND       PRES   REMARKS
CP ATTERBURY + CLOUDY    28  12  50 E5        30.52S WCI  23
FRANKFORT +    LGT SNOW  22  16  78 E10       30.53S WCI  11
GREENWOOD *+   CLOUDY    23   9  54 NE5       30.51F WCI  17
INDIANAPOLIS   LGT SNOW  22  16  78 E8        30.50S WCI  12
-EAGLE CREEK   LGT SNOW  20  17  88 E6        30.51S FOG     WCI  12
KOKOMO *+      CLOUDY    19  10  68 E12       30.54R WCI   7
MARION +       CLOUDY    20   6  54 E8        30.54S WCI  10
MT COMFORT *+  CLOUDY    23   7  50 E7        30.52S WCI  15
SHELBYVILLE    CLOUDY    26  13  57 E7        30.50F WCI  18
ZIONSVILLE +   LGT SNOW  21  15  75 SE7       30.52S WCI  13

$$

INZ033-034-041-042-049-050-058-059-010200-
EAST CENTRAL INDIANA

CITY           SKY/WX    TMP DP  RH WIND       PRES   REMARKS
MUNCIE         CLOUDY    20   9  62 E7        30.52F WCI  11

$$

INZ060-061-067>069-081>083-085>088-010200-
SOUTHWEST INDIANA

CITY           SKY/WX    TMP DP  RH WIND       PRES   REMARKS
EVANSVILLE     CLOUDY    34  21  59 NE7       30.48F WCI  28
HUNTINGBURG *+ CLOUDY    34  16  47 E7        30.49F WCI  28
WASHINGTON +   CLOUDY    30  15  53 NE6       30.50R WCI  24

$$

INZ062-063-066-070>080-084-089>092-010200-
SOUTH CENTRAL AND SOUTHEAST INDIANA

CITY           SKY/WX    TMP DP  RH WIND       PRES   REMARKS
BLOOMINGTON    CLOUDY    27  15  61 E5        30.49S WCI  22
NORTH VERNON + CLOUDY    28  12  50 E6        30.50F WCI  22
SEYMOUR +      CLOUDY    30  18  59 NE6       30.50F WCI  24

$$



USA.gov is the U.S. government's official web portal to all federal, state and local government web resources and services.